Location: Pordenone
(45.9640°N, 12.6580°E)
Time: 16:39:36
(UTC+02:00)

ISS - Pass Details

Date: 24 May 2021
Orbit: 417 x 422 km, 51.6° (Epoch: 18 June)

Event Time Altitude Azimuth Distance (km) Brightness Sun altitude
Rises 22:59:19 0° 297° (WNW) 2,369 1.1 -17.2°
Reaches altitude 10° 23:01:28 10° 303° (WNW) 1,504 0.0 -17.4°
Maximum altitude 23:04:45 47° 19° (NNE) 565 -2.9 -17.7°
Enters shadow 23:06:20 26° 81° (E) 877 -2.4 -17.8°
